| time (UTC) | temp C | wind direction | speed KPH | gust KPH | rain 1hr cm | rain 24hr cm | rain mn cm | humidity % | barometer mb |
| 20260503021855 | 10 | 0 | 0.0 | 3.2 | 0.00 | 0.00 | 0.00 | 77 | 1017.7 |
| 20260503020956 | 11 | 45 | 1.6 | 3.2 | 0.00 | 0.00 | 0.00 | 76 | 1017.7 |
| 20260503020056 | 11 | 45 | 1.6 | 3.2 | 0.00 | 0.00 | 0.00 | 75 | 1017.8 |
| 20260503015155 | 11 | 36 | 1.6 | 3.2 | 0.00 | 0.00 | 0.00 | 75 | 1017.8 |
| 20260503014255 | 11 | 0 | 0.0 | 3.2 | 0.00 | 0.00 | 0.00 | 75 | 1017.8 |
| 20260503013355 | 11 | 22 | 1.6 | 3.2 | 0.00 | 0.00 | 0.00 | 76 | 1017.8 |
| 20260503012455 | 11 | 0 | 0.0 | 3.2 | 0.00 | 0.00 | 0.00 | 75 | 1017.8 |
| 20260503011555 | 11 | 0 | 0.0 | 1.6 | 0.00 | 0.00 | 0.00 | 75 | 1017.8 |
| 20260503010655 | 11 | 0 | 0.0 | 1.6 | 0.00 | 0.00 | 0.00 | 73 | 1017.9 |
| 20260503010005 | 11 | 0 | 0.0 | 1.6 | 0.00 | 0.00 | 0.00 | 73 | 1017.7 |
| 20260503004855 | 11 | 0 | 0.0 | 3.2 | 0.00 | 0.00 | 0.00 | 72 | 1017.9 |
| 20260503003955 | 11 | 0 | 0.0 | 3.2 | 0.00 | 0.00 | 0.00 | 72 | 1017.9 |
| 20260503003055 | 12 | 45 | 1.6 | 3.2 | 0.00 | 0.00 | 0.00 | 72 | 1018.0 |
| 20260503002155 | 12 | 0 | 0.0 | 3.2 | 0.00 | 0.00 | 0.00 | 71 | 1018.1 |
| 20260503001256 | 12 | 22 | 1.6 | 3.2 | 0.00 | 0.00 | 0.00 | 71 | 1018.1 |
| 20260503000355 | 12 | 22 | 1.6 | 3.2 | 0.00 | 0.00 | 0.00 | 66 | 1018.1 |
| 20260502235455 | 12 | 22 | 1.6 | 3.2 | 0.00 | 0.00 | 0.00 | 64 | 1018.3 |
| 20260502234555 | 13 | 0 | 0.0 | 1.6 | 0.00 | 0.00 | 0.00 | 64 | 1018.4 |
| 20260502233655 | 13 | 0 | 0.0 | 1.6 | 0.00 | 0.00 | 0.00 | 63 | 1018.5 |
| 20260502232755 | 13 | 0 | 0.0 | 0.0 | 0.00 | 0.00 | 0.00 | 63 | 1018.4 |
| 20260502231856 | 13 | 0 | 0.0 | 1.6 | 0.00 | 0.00 | 0.00 | 63 | 1018.4 |
| 20260502230955 | 13 | 0 | 0.0 | 1.6 | 0.00 | 0.00 | 0.00 | 62 | 1018.6 |
| 20260502230055 | 13 | 0 | 0.0 | 3.2 | 0.00 | 0.00 | 0.00 | 62 | 1018.4 |
| 20260502225155 | 13 | 202 | 1.6 | 3.2 | 0.00 | 0.00 | 0.00 | 62 | 1018.5 |
| 20260502224256 | 13 | 0 | 0.0 | 3.2 | 0.00 | 0.00 | 0.00 | 62 | 1018.7 |
| 20260502223607 | 13 | 202 | 1.6 | 3.2 | 0.00 | 0.00 | 0.00 | 62 | 1018.6 |
| 20260502222710 | 14 | 202 | 1.6 | 3.2 | 0.00 | 0.00 | 0.00 | 62 | 1018.7 |
| 20260502221556 | 14 | 198 | 1.6 | 3.2 | 0.00 | 0.00 | 0.00 | 61 | 1018.7 |
| 20260502220656 | 14 | 202 | 1.6 | 3.2 | 0.00 | 0.00 | 0.00 | 61 | 1018.8 |
| 20260502215755 | 14 | 202 | 3.2 | 3.2 | 0.00 | 0.00 | 0.00 | 61 | 1018.8 |
| 20260502214855 | 15 | 202 | 1.6 | 3.2 | 0.00 | 0.00 | 0.00 | 60 | 1018.7 |
| 20260502213955 | 15 | 0 | 0.0 | 3.2 | 0.00 | 0.00 | 0.00 | 60 | 1018.7 |
| 20260502213056 | 15 | 150 | 1.6 | 3.2 | 0.00 | 0.00 | 0.00 | 57 | 1018.8 |
| 20260502212155 | 15 | 202 | 3.2 | 3.2 | 0.00 | 0.00 | 0.00 | 57 | 1018.8 |
| 20260502211255 | 15 | 0 | 0.0 | 3.2 | 0.00 | 0.00 | 0.00 | 58 | 1018.7 |
| 20260502210606 | 15 | 72 | 1.6 | 3.2 | 0.00 | 0.00 | 0.00 | 58 | 1018.8 |
| 20260502205456 | 15 | 0 | 0.0 | 3.2 | 0.00 | 0.00 | 0.00 | 58 | 1018.8 |
| 20260502204555 | 15 | 0 | 0.0 | 3.2 | 0.00 | 0.00 | 0.00 | 57 | 1018.8 |
| 20260502203655 | 16 | 22 | 1.6 | 3.2 | 0.00 | 0.00 | 0.00 | 57 | 1018.8 |
| 20260502203005 | 16 | 0 | 0.0 | 3.2 | 0.00 | 0.00 | 0.00 | 57 | 1018.8 |
| 20260502201855 | 16 | 0 | 0.0 | 3.2 | 0.00 | 0.00 | 0.00 | 54 | 1018.9 |
| 20260502200955 | 16 | 0 | 0.0 | 3.2 | 0.00 | 0.00 | 0.00 | 54 | 1018.9 |
| 20260502200056 | 16 | 154 | 1.6 | 3.2 | 0.00 | 0.00 | 0.00 | 53 | 1018.9 |
| 20260502195155 | 16 | 31 | 3.2 | 3.2 | 0.00 | 0.00 | 0.00 | 53 | 1018.9 |
| 20260502194256 | 16 | 135 | 1.6 | 3.2 | 0.00 | 0.00 | 0.00 | 53 | 1018.9 |
| 20260502193356 | 17 | 0 | 0.0 | 3.2 | 0.00 | 0.00 | 0.00 | 52 | 1018.8 |
| 20260502192455 | 17 | 0 | 0.0 | 3.2 | 0.00 | 0.00 | 0.00 | 51 | 1018.8 |
| 20260502191555 | 17 | 0 | 0.0 | 3.2 | 0.00 | 0.00 | 0.00 | 47 | 1018.7 |
| 20260502190656 | 18 | 202 | 1.6 | 3.2 | 0.00 | 0.00 | 0.00 | 45 | 1018.8 |
| 20260502185757 | 18 | 0 | 0.0 | 1.6 | 0.00 | 0.00 | 0.00 | 43 | 1018.8 |
| 20260502184856 | 19 | 0 | 0.0 | 3.2 | 0.00 | 0.00 | 0.00 | 42 | 1018.6 |
| 20260502183955 | 20 | 164 | 3.2 | 4.8 | 0.00 | 0.00 | 0.00 | 41 | 1018.6 |
| 20260502183056 | 20 | 162 | 1.6 | 4.8 | 0.00 | 0.00 | 0.00 | 41 | 1018.5 |
| 20260502182156 | 20 | 97 | 3.2 | 4.8 | 0.00 | 0.00 | 0.00 | 40 | 1018.4 |
| 20260502181505 | 21 | 92 | 1.6 | 4.8 | 0.00 | 0.00 | 0.00 | 40 | 1018.6 |
| 20260502180356 | 22 | 187 | 3.2 | 4.8 | 0.00 | 0.00 | 0.00 | 37 | 1018.4 |
| 20260502164256 | 28 | 164 | 3.2 | 9.7 | 0.00 | 0.00 | 0.00 | 23 | 1018.5 |
| 20260502163356 | 28 | 158 | 6.4 | 9.7 | 0.00 | 0.00 | 0.00 | 23 | 1018.7 |
| 20260502162456 | 28 | 183 | 6.4 | 11.3 | 0.00 | 0.00 | 0.00 | 23 | 1018.7 |
| 20260502161555 | 29 | 180 | 9.7 | 11.3 | 0.00 | 0.00 | 0.00 | 23 | 1018.8 |
| 20260502160656 | 29 | 189 | 4.8 | 11.3 | 0.00 | 0.00 | 0.00 | 23 | 1018.9 |
| 20260502152155 | 30 | 168 | 6.4 | 11.3 | 0.00 | 0.00 | 0.00 | 23 | 1019.2 |
| 20260502151255 | 30 | 78 | 4.8 | 12.9 | 0.00 | 0.00 | 0.00 | 23 | 1019.3 |
| 20260502150355 | 30 | 114 | 3.2 | 12.9 | 0.00 | 0.00 | 0.00 | 23 | 1019.4 |
| 20260502130655 | 28 | 146 | 8.0 | 14.5 | 0.00 | 0.00 | 0.00 | 23 | 1020.7 |
| 20260502123057 | 29 | 79 | 3.2 | 14.5 | 0.00 | 0.00 | 0.00 | 24 | 1021.2 |
| 20260502122155 | 29 | 159 | 3.2 | 11.3 | 0.00 | 0.00 | 0.00 | 23 | 1021.3 |
| 20260502121256 | 30 | 164 | 4.8 | 11.3 | 0.00 | 0.00 | 0.00 | 24 | 1021.5 |
| 20260502120355 | 28 | 182 | 8.0 | 11.3 | 0.00 | 0.00 | 0.00 | 23 | 1021.6 |
| 20260502115456 | 28 | 166 | 4.8 | 12.9 | 0.00 | 0.00 | 0.00 | 24 | 1021.8 |
| 20260502114806 | 28 | 79 | 6.4 | 11.3 | 0.00 | 0.00 | 0.00 | 24 | 1021.8 |
| 20260502113655 | 28 | 202 | 6.4 | 14.5 | 0.00 | 0.00 | 0.00 | 24 | 1021.9 |
| 20260502112755 | 28 | 148 | 12.9 | 14.5 | 0.00 | 0.00 | 0.00 | 23 | 1021.9 |
| 20260502111855 | 28 | 171 | 8.0 | 12.9 | 0.00 | 0.00 | 0.00 | 23 | 1022.0 |
| 20260502110955 | 28 | 37 | 3.2 | 8.0 | 0.00 | 0.00 | 0.00 | 24 | 1022.1 |
| 20260502110055 | 28 | 169 | 3.2 | 12.9 | 0.00 | 0.00 | 0.00 | 24 | 1022.3 |
| 20260502105155 | 28 | 78 | 6.4 | 12.9 | 0.00 | 0.00 | 0.00 | 24 | 1022.5 |
| 20260502104255 | 27 | 168 | 6.4 | 12.9 | 0.00 | 0.00 | 0.00 | 25 | 1022.6 |
| 20260502103355 | 27 | 128 | 9.7 | 12.9 | 0.00 | 0.00 | 0.00 | 28 | 1022.7 |
| 20260502102455 | 28 | 42 | 8.0 | 12.9 | 0.00 | 0.00 | 0.00 | 24 | 1022.8 |
| 20260502101555 | 28 | 47 | 3.2 | 6.4 | 0.00 | 0.00 | 0.00 | 24 | 1022.9 |
| 20260502100656 | 27 | 45 | 4.8 | 6.4 | 0.00 | 0.00 | 0.00 | 25 | 1022.9 |
| 20260502091255 | 26 | 112 | 6.4 | 8.0 | 0.00 | 0.00 | 0.00 | 31 | 1023.5 |
| 20260502090355 | 25 | 124 | 1.6 | 6.4 | 0.00 | 0.00 | 0.00 | 32 | 1023.5 |
| 20260502070909 | 15 | 22 | 3.2 | 8.0 | 0.00 | 0.00 | 0.00 | 55 | 1024.2 |
| 20260502070006 | 15 | 22 | 3.2 | 6.4 | 0.00 | 0.00 | 0.00 | 59 | 1024.2 |
| 20260502064855 | 14 | 23 | 3.2 | 6.4 | 0.00 | 0.00 | 0.00 | 60 | 1024.2 |
| 20260502063956 | 14 | 25 | 3.2 | 6.4 | 0.00 | 0.00 | 0.00 | 60 | 1024.4 |
| 20260502063056 | 13 | 29 | 3.2 | 3.2 | 0.00 | 0.00 | 0.00 | 61 | 1024.4 |
| 20260502062156 | 13 | 30 | 3.2 | 3.2 | 0.00 | 0.00 | 0.00 | 61 | 1024.4 |
| 20260502061255 | 13 | 23 | 3.2 | 4.8 | 0.00 | 0.00 | 0.00 | 62 | 1024.3 |
| 20260502060605 | 13 | 22 | 1.6 | 6.4 | 0.00 | 0.00 | 0.00 | 61 | 1024.4 |
| 20260502055707 | 12 | 22 | 3.2 | 6.4 | 0.00 | 0.00 | 0.00 | 62 | 1024.3 |
| 20260502054805 | 12 | 22 | 3.2 | 4.8 | 0.00 | 0.00 | 0.00 | 62 | 1024.3 |
| 20260502053655 | 12 | 22 | 3.2 | 6.4 | 0.00 | 0.00 | 0.00 | 66 | 1024.4 |
| 20260502052755 | 11 | 25 | 3.2 | 4.8 | 0.00 | 0.00 | 0.00 | 68 | 1024.4 |
| 20260502051855 | 11 | 22 | 3.2 | 4.8 | 0.00 | 0.00 | 0.00 | 69 | 1024.3 |
| 20260502050955 | 11 | 22 | 3.2 | 3.2 | 0.00 | 0.00 | 0.00 | 69 | 1024.5 |
| 20260502050056 | 10 | 26 | 3.2 | 4.8 | 0.00 | 0.00 | 0.00 | 70 | 1024.3 |
| 20260502045155 | 10 | 28 | 3.2 | 4.8 | 0.00 | 0.00 | 0.00 | 70 | 1024.2 |
| 20260502044255 | 10 | 22 | 3.2 | 3.2 | 0.00 | 0.00 | 0.00 | 71 | 1024.3 |
| 20260502043356 | 9 | 22 | 3.2 | 3.2 | 0.00 | 0.00 | 0.00 | 72 | 1024.2 |
| 20260502042455 | 9 | 26 | 1.6 | 3.2 | 0.00 | 0.00 | 0.00 | 72 | 1024.2 |
| 20260502041555 | 9 | 42 | 1.6 | 3.2 | 0.00 | 0.00 | 0.00 | 72 | 1024.4 |
| 20260502040655 | 9 | 0 | 0.0 | 3.2 | 0.00 | 0.00 | 0.00 | 73 | 1024.3 |
| 20260502035755 | 8 | 25 | 1.6 | 3.2 | 0.00 | 0.00 | 0.00 | 73 | 1024.3 |
| 20260502035105 | 8 | 0 | 0.0 | 1.6 | 0.00 | 0.00 | 0.00 | 74 | 1024.3 |
| 20260502033955 | 8 | 0 | 0.0 | 1.6 | 0.00 | 0.00 | 0.00 | 73 | 1024.3 |
| 20260502033055 | 8 | 0 | 0.0 | 1.6 | 0.00 | 0.00 | 0.00 | 73 | 1024.1 |
| 20260502032155 | 8 | 0 | 0.0 | 1.6 | 0.00 | 0.00 | 0.00 | 73 | 1024.3 |
| 20260502031255 | 8 | 0 | 0.0 | 3.2 | 0.00 | 0.00 | 0.00 | 72 | 1024.4 |
| 20260502030355 | 8 | 30 | 1.6 | 3.2 | 0.00 | 0.00 | 0.00 | 72 | 1024.3 |
| 20260502025709 | 8 | 45 | 1.6 | 3.2 | 0.00 | 0.00 | 0.00 | 71 | 1024.3 |
| 20260502024556 | 9 | 0 | 0.0 | 1.6 | 0.00 | 0.00 | 0.00 | 71 | 1024.3 |
| 20260502023655 | 9 | 0 | 0.0 | 1.6 | 0.00 | 0.00 | 0.00 | 71 | 1024.4 |
| 20260502022756 | 9 | 0 | 0.0 | 1.6 | 0.00 | 0.00 | 0.00 | 71 | 1024.5 |